[[[{"header":{"parameterUnit":"kt","parameterCategory":2,"dx":1,"dy":1,"la1":30.253999710083008,"la2":30.299108505249023,"lo1":-89.0895004272461,"lo2":-89.04439544677734,"nx":28,"ny":28,"refTime":"2022-10-06T21:00:00:Z","depth":0,"parameterNumber":1,"parameterNumberName":"U-component_of_WINDS"},"data":[2.0608,2.0743,2.0786,2.0962,2.1031,2.116,2.1221,2.1305,2.1383,2.1546,2.1648,2.1709,2.1808,2.1944,2.2059,2.2085,2.2132,2.2148,2.2176,2.206,2.2047,2.2035,2.2005,2.2157,2.2157,2.229,2.2291,2.2292,2.0522,2.0591,2.0695,2.0827,2.0918,2.0929,2.1036,2.1113,2.1229,2.1327,2.1429,2.1577,2.1701,2.1797,2.1926,2.1994,2.2009,2.2026,2.2023,2.2039,2.1917,2.1884,2.2012,2.2012,2.2012,2.2012,2.2012,2.2012,2.0377,2.0456,2.056,2.0675,2.0753,2.0841,2.0926,2.0997,2.1103,2.1238,2.1271,2.1406,2.1515,2.1692,2.1763,2.1872,2.1862,2.1896,2.1905,2.1913,2.1917,2.1722,2.1896,2.1895,2.1895,2.1895,2.1895,0,2.0285,2.0316,2.0418,2.0535,2.0621,2.0717,2.0812,2.0866,2.0949,2.1033,2.116,2.1241,2.1403,2.153,2.1661,2.1729,2.1753,2.176,2.1785,2.1771,2.1742,2.1762,2.1562,2.1755,2.1754,2.1754,2.1753,2.1753,2.0144,2.023,2.036,2.0427,2.0489,2.0596,2.067,2.0736,2.0812,2.0942,2.1011,2.1137,2.1242,2.1441,2.1528,2.165,2.1664,2.1733,2.1683,2.1666,2.1669,2.1664,2.1674,2.1742,2.1743,2.1744,2.1745,0,2.0062,2.0131,2.0279,2.0399,2.0433,2.0521,2.0626,2.071,2.077,2.0894,2.0927,2.1023,2.1148,2.1224,2.1383,2.1419,2.1573,2.1582,2.1536,2.1543,2.1614,2.1608,2.1829,2.1862,2.1703,2.1705,2.1706,0,1.997,2.0081,2.0179,2.0261,2.0387,2.045,2.0575,2.0639,2.0731,2.0829,2.0866,2.0958,2.1039,2.1144,2.1198,2.1337,2.1366,2.1403,2.1417,2.1401,2.1397,2.1446,2.1439,2.144,2.1439,2.1438,2.1437,0,1.9834,2.0016,2.0149,2.0202,2.0342,2.0405,2.0467,2.057,2.0642,2.0749,2.0797,2.0917,2.0983,2.1077,2.1145,2.1108,2.1316,2.1279,2.1354,2.1353,2.1398,2.1394,2.1569,2.1435,2.1435,2.1434,2.1434,0,1.9772,1.9873,2.0054,2.0172,2.0218,2.0306,2.0427,2.0519,2.0626,2.0665,2.0749,2.0783,2.0908,2.0867,2.1042,2.0975,2.104,2.1086,2.1093,2.1111,2.1063,2.1154,2.1311,2.1331,2.1125,2.1123,2.1121,0,1.9599,1.98,1.9854,2.0026,2.0129,2.0162,2.0262,2.0355,2.0414,2.0513,2.058,2.0693,2.0677,2.0724,2.08,2.0875,2.0961,2.0865,2.1014,2.1019,2.0986,2.113,2.1135,2.1267,2.1089,2.1092,2.1094,0,1.9474,1.9639,1.9666,1.973,1.9859,1.9946,2.006,2.0184,2.0247,2.0346,2.0447,2.0606,2.0603,2.0678,2.0718,2.0794,2.0905,2.078,2.0784,2.0802,2.1078,2.1082,2.1104,2.0916,2.092,2.0923,2.1069,0,1.9367,1.9476,1.955,1.9686,1.9764,1.9875,1.995,2.0023,2.0053,2.0112,2.026,2.0356,2.0486,2.0529,2.0559,2.0707,2.0695,2.0689,2.0657,2.0749,2.08,2.082,2.0575,2.0575,2.0574,2.0574,0,0,1.9186,1.9342,1.9397,1.9508,1.9578,1.9609,1.9722,1.9794,1.9938,1.9987,1.9969,2.0208,2.0287,2.046,2.0494,2.0546,2.0581,2.0545,2.0704,2.0718,2.0731,2.0784,2.0803,2.0573,2.0573,2.0573,2.0573,0,1.9163,1.9236,1.9343,1.9419,1.9533,1.959,1.9615,1.9735,1.9779,1.9921,1.9949,2.0047,2.0235,2.0317,2.0383,2.0525,2.0542,2.0559,2.061,2.0697,2.0711,2.0725,2.0778,2.0796,2.0572,2.0572,2.0572,0,1.9054,1.914,1.9199,1.9354,1.943,1.9535,1.9518,1.9629,1.9709,1.9742,1.9883,1.9948,2.0063,2.0213,2.0284,2.027,2.0503,2.0442,2.0447,2.0457,2.0546,2.0563,2.0579,2.0374,2.0373,2.0372,0,0,1.9024,1.9124,1.9237,1.9355,1.94,1.9485,1.9548,1.9584,1.9684,1.9724,1.9806,1.9905,2.0016,2.0088,2.0196,2.035,2.0381,2.0414,2.0424,2.0431,2.0445,2.0535,2.0552,2.0368,2.0368,2.0368,0,0,1.9011,1.9145,1.9156,1.9301,1.9394,1.9515,1.9586,1.9604,1.9707,1.9703,1.9772,1.9801,1.9943,2.0006,1.9945,2.0186,2.0151,2.0168,2.014,2.0153,2.0162,2.0145,1.9943,0,0,0,0,0,1.9024,1.9128,1.9136,1.9171,1.9369,1.951,1.9536,1.9593,1.9567,1.9622,1.9694,1.9707,1.9988,1.9935,1.9972,2.0039,2.0318,2.0327,2.0335,2.0336,2.0349,2.036,0,0,0,0,0,0,1.9039,1.9082,1.9134,1.9258,1.9303,1.9506,1.9476,1.9494,1.9562,1.9562,1.9692,1.9711,1.9764,1.9921,1.9953,2.0016,1.9933,2.0322,2.0329,2.0336,2.0341,2.0351,2.036,0,0,0,0,0,1.905,1.9085,1.9387,1.9257,1.9296,1.9396,1.9472,1.9487,1.9542,1.9653,1.9672,1.9578,1.9764,1.9795,1.994,2.0,1.9911,1.9923,2.0327,2.0332,2.0338,2.0346,0,0,0,0,0,0,1.9059,1.9102,1.9396,1.941,1.9221,1.9386,1.9413,1.9481,1.9629,1.9648,1.9541,1.954,1.9766,1.9789,1.9813,1.9991,1.9894,1.9906,1.9913,2.0331,2.0336,2.034,0,0,0,0,0,0,1.9083,1.9113,1.9403,1.9355,1.9364,1.9376,1.9401,1.9532,1.963,1.9509,1.9512,1.9539,1.9732,1.9786,1.9804,2.0008,1.988,1.9892,1.9899,1.9904,2.0335,2.0338,0,0,0,0,0,0,1.9097,1.9123,1.9351,1.9358,1.9366,1.9531,1.9494,1.9695,1.9585,1.9502,1.9577,1.9573,1.9728,1.9748,1.9798,1.9993,2.0004,1.9881,1.9888,1.9894,1.9897,0,0,0,0,0,0,0,1.9108,1.8921,1.9311,1.9362,1.9368,1.9541,1.9545,1.9549,1.9584,1.9581,1.9578,1.9575,1.9816,1.9828,1.9841,1.9982,0,0,1.988,1.9885,0,0,0,0,0,0,0,0,1.8911,1.8919,1.9311,1.9314,1.9317,1.9542,1.9545,1.9548,1.9583,1.9581,1.9578,1.9576,1.9819,1.9829,1.9839,0,0,0,0,0,0,0,0,0,0,0,0,0,0,0,1.9312,1.9314,0,1.9542,1.9545,1.9548,1.9583,1.9581,1.9579,1.9577,1.9822,1.983,1.9839,0,0,0,0,0,0,0,0,0,0,0,0,0,0,0,0,0,0,0,0,0,0,0,0,0,0,0,0,0,0,0,0,0,0,0,0,0,0,0,0,0,0,0,0,0,0,0,0,0,0,0,0,0,0,0,0,0,0,0,0,0,0,0,0,0,0,0,0,0]}],[{"header":{"parameterUnit":"kt","parameterCategory":2,"dx":1,"dy":1,"la1":30.253999710083008,"la2":30.299108505249023,"lo1":-89.0895004272461,"lo2":-89.04439544677734,"nx":28,"ny":28,"refTime":"2022-10-06T21:00:00:Z","depth":0,"parameterNumber":2,"parameterNumberName":"V-component_of_WINDS"},"data":[-1.7723,-1.7734,-1.7733,-1.7748,-1.7749,-1.7759,-1.7762,-1.7767,-1.7771,-1.7783,-1.7791,-1.7792,-1.7797,-1.7807,-1.7816,-1.7816,-1.782,-1.7825,-1.7825,-1.78,-1.7796,-1.7793,-1.7789,-1.7827,-1.7827,-1.7851,-1.7851,-1.7851,-1.7707,-1.7709,-1.7715,-1.7721,-1.7727,-1.7722,-1.7726,-1.7732,-1.7741,-1.7746,-1.7753,-1.7764,-1.7774,-1.7776,-1.7785,-1.7793,-1.779,-1.7795,-1.7794,-1.7795,-1.7768,-1.7764,-1.7797,-1.7797,-1.7797,-1.7797,-1.7797,-1.7797,-1.7679,-1.7686,-1.7688,-1.7695,-1.7698,-1.7702,-1.7709,-1.7709,-1.7717,-1.7724,-1.7722,-1.7733,-1.7738,-1.7748,-1.7752,-1.7761,-1.7755,-1.776,-1.7761,-1.7762,-1.7764,-1.7729,-1.7763,-1.7763,-1.7762,-1.7762,-1.7762,0,-1.7657,-1.7656,-1.7661,-1.7667,-1.7672,-1.7676,-1.768,-1.7685,-1.7681,-1.7687,-1.7696,-1.7701,-1.7712,-1.7721,-1.773,-1.7732,-1.7726,-1.7726,-1.7729,-1.7729,-1.7729,-1.7729,-1.7685,-1.7724,-1.7724,-1.7723,-1.7723,-1.7723,-1.7628,-1.7636,-1.7637,-1.7641,-1.7642,-1.765,-1.7654,-1.7649,-1.7654,-1.7659,-1.7666,-1.7675,-1.7681,-1.7697,-1.7697,-1.7706,-1.7703,-1.7718,-1.7704,-1.7705,-1.7702,-1.7701,-1.7702,-1.772,-1.772,-1.772,-1.7721,0,-1.7612,-1.7608,-1.762,-1.762,-1.762,-1.7629,-1.763,-1.7637,-1.7636,-1.7646,-1.7648,-1.7647,-1.7656,-1.7653,-1.7664,-1.7662,-1.768,-1.7678,-1.7679,-1.7678,-1.7691,-1.7689,-1.7733,-1.7738,-1.77,-1.7701,-1.7701,0,-1.7585,-1.7596,-1.7589,-1.7596,-1.7609,-1.7603,-1.7616,-1.7615,-1.7618,-1.7625,-1.7618,-1.7626,-1.7621,-1.7629,-1.7627,-1.7641,-1.7643,-1.7643,-1.7642,-1.7642,-1.7642,-1.7644,-1.7642,-1.764,-1.7639,-1.7639,-1.7639,0,-1.7559,-1.7568,-1.7579,-1.758,-1.758,-1.7586,-1.7587,-1.7588,-1.7592,-1.7597,-1.76,-1.7607,-1.761,-1.7616,-1.7613,-1.7603,-1.763,-1.7616,-1.7629,-1.7629,-1.7634,-1.7633,-1.7674,-1.7639,-1.7639,-1.7638,-1.7638,0,-1.7535,-1.7538,-1.7555,-1.7555,-1.7558,-1.7565,-1.757,-1.7576,-1.7578,-1.7577,-1.7581,-1.7574,-1.7586,-1.7573,-1.7589,-1.7578,-1.7583,-1.7583,-1.7584,-1.7583,-1.7568,-1.759,-1.763,-1.7634,-1.7586,-1.7585,-1.7585,0,-1.7507,-1.7522,-1.7515,-1.7532,-1.7538,-1.7528,-1.7537,-1.7538,-1.7536,-1.7542,-1.7541,-1.7548,-1.7538,-1.7539,-1.7548,-1.7546,-1.7561,-1.7545,-1.7555,-1.7555,-1.7553,-1.759,-1.7596,-1.7622,-1.7579,-1.758,-1.758,0,-1.7483,-1.7481,-1.7484,-1.7485,-1.7484,-1.7489,-1.7499,-1.7504,-1.7508,-1.751,-1.7519,-1.7529,-1.7521,-1.7524,-1.7519,-1.7528,-1.7551,-1.7518,-1.7518,-1.7524,-1.7576,-1.7581,-1.7586,-1.7546,-1.7547,-1.7548,-1.7576,0,-1.7449,-1.7455,-1.7463,-1.7464,-1.7467,-1.7476,-1.747,-1.7475,-1.7469,-1.7466,-1.7478,-1.7478,-1.7483,-1.7487,-1.7481,-1.7503,-1.7498,-1.7489,-1.7475,-1.7499,-1.7508,-1.7512,-1.7462,-1.7462,-1.7461,-1.7461,0,0,-1.7422,-1.7429,-1.7421,-1.7428,-1.743,-1.7417,-1.7428,-1.7429,-1.743,-1.7432,-1.7424,-1.7437,-1.7437,-1.7452,-1.746,-1.7462,-1.7465,-1.7456,-1.7488,-1.7491,-1.7494,-1.7504,-1.7507,-1.746,-1.746,-1.746,-1.746,0,-1.7407,-1.7405,-1.7414,-1.7414,-1.7413,-1.7408,-1.7411,-1.7408,-1.7406,-1.7417,-1.7406,-1.7413,-1.7423,-1.7424,-1.7426,-1.7455,-1.7446,-1.7457,-1.7474,-1.7484,-1.7488,-1.7491,-1.7501,-1.7505,-1.7459,-1.7459,-1.7459,0,-1.7382,-1.7379,-1.7382,-1.7384,-1.7383,-1.7389,-1.7373,-1.738,-1.7385,-1.737,-1.7381,-1.7379,-1.738,-1.7395,-1.7402,-1.7395,-1.7429,-1.7416,-1.7419,-1.7419,-1.7429,-1.7433,-1.7437,-1.7386,-1.7386,-1.7386,0,0,-1.737,-1.7375,-1.7368,-1.738,-1.738,-1.7373,-1.7375,-1.7369,-1.7368,-1.7368,-1.7366,-1.7367,-1.7372,-1.7376,-1.7381,-1.7399,-1.7398,-1.7408,-1.7411,-1.7414,-1.7416,-1.7426,-1.743,-1.7385,-1.7385,-1.7385,0,0,-1.7364,-1.7357,-1.735,-1.7362,-1.7362,-1.7357,-1.7365,-1.7357,-1.736,-1.7358,-1.7348,-1.7347,-1.7361,-1.736,-1.7349,-1.7376,-1.7362,-1.7364,-1.7375,-1.738,-1.7383,-1.7382,-1.7331,0,0,0,0,0,-1.7344,-1.7358,-1.7352,-1.7352,-1.7354,-1.736,-1.7361,-1.7352,-1.7342,-1.7349,-1.7346,-1.7335,-1.7353,-1.7343,-1.7344,-1.7356,-1.7374,-1.7376,-1.7378,-1.7396,-1.7401,-1.7405,0,0,0,0,0,0,-1.7344,-1.7345,-1.7351,-1.7347,-1.7347,-1.736,-1.7341,-1.7339,-1.7341,-1.7339,-1.7336,-1.7335,-1.7329,-1.7341,-1.7343,-1.7354,-1.7331,-1.7374,-1.7376,-1.7378,-1.7398,-1.7402,-1.7405,0,0,0,0,0,-1.7344,-1.7345,-1.735,-1.7346,-1.7347,-1.7338,-1.7341,-1.7339,-1.734,-1.7334,-1.7333,-1.7333,-1.7329,-1.733,-1.7342,-1.7354,-1.733,-1.733,-1.7376,-1.7377,-1.7378,-1.74,0,0,0,0,0,0,-1.7345,-1.7344,-1.735,-1.7349,-1.734,-1.7337,-1.7337,-1.7339,-1.7335,-1.7334,-1.733,-1.7329,-1.733,-1.733,-1.7331,-1.7354,-1.7329,-1.7329,-1.733,-1.7377,-1.7378,-1.7379,0,0,0,0,0,0,-1.7344,-1.7344,-1.7349,-1.7342,-1.734,-1.7337,-1.7336,-1.7345,-1.7335,-1.7331,-1.733,-1.733,-1.7329,-1.733,-1.7331,-1.7345,-1.7328,-1.7329,-1.7329,-1.7329,-1.7377,-1.7378,0,0,0,0,0,0,-1.7344,-1.7344,-1.7342,-1.7341,-1.734,-1.7337,-1.7345,-1.7347,-1.7327,-1.7332,-1.7326,-1.7325,-1.733,-1.733,-1.7331,-1.7345,-1.7345,-1.7328,-1.7329,-1.7329,-1.7329,0,0,0,0,0,0,0,-1.7344,-1.7343,-1.7351,-1.734,-1.7339,-1.7348,-1.7348,-1.7348,-1.7327,-1.7327,-1.7326,-1.7325,-1.7325,-1.7325,-1.7326,-1.7345,0,0,-1.7328,-1.7328,0,0,0,0,0,0,0,0,-1.7343,-1.7343,-1.7351,-1.7351,-1.735,-1.7348,-1.7348,-1.7348,-1.7327,-1.7327,-1.7326,-1.7325,-1.7325,-1.7325,-1.7326,0,0,0,0,0,0,0,0,0,0,0,0,0,0,0,-1.7351,-1.7351,0,-1.7348,-1.7348,-1.7348,-1.7327,-1.7327,-1.7326,-1.7326,-1.7325,-1.7325,-1.7326,0,0,0,0,0,0,0,0,0,0,0,0,0,0,0,0,0,0,0,0,0,0,0,0,0,0,0,0,0,0,0,0,0,0,0,0,0,0,0,0,0,0,0,0,0,0,0,0,0,0,0,0,0,0,0,0,0,0,0,0,0,0,0,0,0,0,0,0,0]}]]]